[[{"header":{"parameterUnit":"m.s-1","parameterCategory":1,"la1":30.2991,"la2":30.254,"lo1":-89.0895,"lo2":-89.0444,"dy":0.0017,"dx":0.0017,"nx":28,"ny":28,"refTime":"2023-07-19T09:00:00:Z","depth":0,"parameterNumber":2,"parameterNumberName":"U-component_of_WINDS"},"data":[0,0,0,0,0,0,0,0,0,0,0,0,0,0,0,0,0,0,0,0,0,0,0,0,0,0,0,0,0,0,0,0,0,0,0,0,0,0,0,0,0,0,0,0,0,0,0,0,0,0,0,0,0,0,0,0,0,0,1.6221,1.6221,0,1.6153,1.6152,1.6151,1.6053,1.6051,1.605,1.6048,1.598,1.598,1.598,0,0,0,0,0,0,0,0,0,0,0,0,0,1.6268,1.6268,1.6221,1.622,1.622,1.6153,1.6152,1.6151,1.6053,1.6051,1.6049,1.6047,1.598,1.598,1.598,0,0,0,0,0,0,0,0,0,0,0,0,0,1.6228,1.6267,1.6221,1.6163,1.6157,1.6153,1.6152,1.6151,1.6054,1.6051,1.6049,1.6046,1.598,1.598,1.598,1.6028,0,0,1.5979,1.5978,0,0,0,0,0,0,0,0,1.6231,1.6227,1.6172,1.6167,1.616,1.6109,1.6143,1.611,1.6054,1.6093,1.6048,1.6045,1.6025,1.6021,1.6014,1.6025,1.6022,1.5979,1.5978,1.5978,1.5978,0,0,0,0,0,0,0,1.6234,1.6229,1.6194,1.6172,1.6164,1.614,1.6131,1.6136,1.6074,1.6089,1.6082,1.6075,1.6021,1.6014,1.6011,1.6021,1.5979,1.5978,1.5978,1.5978,1.6065,1.6067,0,0,0,0,0,0,1.6245,1.6232,1.6196,1.6192,1.619,1.6141,1.6132,1.6128,1.6074,1.6063,1.6078,1.6071,1.6016,1.6012,1.6009,1.6059,1.5978,1.5978,1.5978,1.6062,1.6065,1.6068,0,0,0,0,0,0,1.6246,1.6243,1.6199,1.621,1.6203,1.6143,1.614,1.6128,1.6121,1.6065,1.6053,1.6082,1.6014,1.6009,1.6023,1.6055,1.5978,1.5977,1.6059,1.6063,1.6067,1.6163,0,0,0,0,0,0,1.6248,1.6244,1.6262,1.6211,1.6202,1.6215,1.6142,1.6128,1.612,1.6111,1.6066,1.6056,1.6012,1.6024,1.6023,1.6054,1.5977,1.6056,1.6061,1.6066,1.6156,1.6169,1.618,0,0,0,0,0,1.625,1.6293,1.6263,1.626,1.6224,1.6217,1.6212,1.616,1.6123,1.614,1.6104,1.6057,1.6052,1.6026,1.6024,1.6055,1.6054,1.606,1.6065,1.6151,1.6167,1.618,0,0,0,0,0,0,1.6351,1.6285,1.6252,1.628,1.6254,1.6201,1.6221,1.6179,1.6164,1.6156,1.6093,1.6083,1.6104,1.6081,1.6054,1.6097,1.6046,1.6051,1.6112,1.6126,1.6138,1.6143,1.5977,0,0,0,0,0,1.6376,1.6376,1.6319,1.6349,1.6338,1.6282,1.6277,1.6238,1.621,1.6199,1.6164,1.6139,1.6131,1.6128,1.6118,1.6152,1.614,1.6173,1.6185,1.6195,1.62,1.6213,1.6226,1.6087,1.6087,1.6087,0,0,1.6429,1.6393,1.6397,1.6368,1.6344,1.6344,1.6274,1.6278,1.6278,1.62,1.621,1.6183,1.6151,1.6174,1.6183,1.6156,1.6235,1.6202,1.621,1.621,1.622,1.6234,1.6245,1.6091,1.609,1.6089,0,0,1.6524,1.6498,1.6518,1.6495,1.6459,1.6421,1.6426,1.6377,1.6356,1.6365,1.6306,1.6304,1.6293,1.6271,1.6259,1.6343,1.6298,1.6341,1.6404,1.6418,1.6429,1.6438,1.6465,1.6476,1.6347,1.6347,1.6347,0,1.6595,1.6593,1.6535,1.6541,1.6529,1.6458,1.6477,1.6458,1.6421,1.6414,1.6384,1.6365,1.6339,1.6355,1.6375,1.6368,1.637,1.6346,1.6432,1.644,1.6448,1.6474,1.6484,1.6352,1.6352,1.6351,1.6351,0,1.6679,1.6679,1.67,1.6663,1.6654,1.6667,1.661,1.6608,1.657,1.6534,1.6543,1.6508,1.6488,1.6489,1.6453,1.6499,1.6483,1.6443,1.639,1.6468,1.649,1.65,1.636,1.6358,1.6357,1.6355,0,0,1.6838,1.6767,1.6775,1.6756,1.671,1.6708,1.6717,1.6696,1.6694,1.6671,1.6675,1.6666,1.6628,1.6614,1.6574,1.6587,1.6652,1.6545,1.6543,1.6564,1.6697,1.6726,1.6738,1.6622,1.6624,1.6625,1.6699,0,1.6923,1.6933,1.688,1.6905,1.6902,1.6833,1.684,1.6812,1.6779,1.6772,1.6735,1.6729,1.668,1.6671,1.668,1.6642,1.6677,1.6636,1.6625,1.6625,1.6634,1.675,1.6782,1.6853,1.6708,1.6709,1.671,0,1.7024,1.7003,1.7027,1.6975,1.6972,1.698,1.6955,1.6949,1.6915,1.689,1.6873,1.6826,1.683,1.678,1.6784,1.6757,1.6749,1.673,1.6731,1.6727,1.6672,1.6748,1.6875,1.6885,1.6724,1.6723,1.6722,0,1.7134,1.7112,1.7122,1.7109,1.705,1.7057,1.7033,1.6996,1.6985,1.6964,1.6956,1.6936,1.6924,1.6909,1.6858,1.6826,1.6867,1.6813,1.6845,1.6846,1.6856,1.6856,1.6982,1.6855,1.6854,1.6854,1.6854,0,1.7233,1.725,1.717,1.7177,1.7193,1.7131,1.7149,1.7118,1.7085,1.7084,1.7023,1.7023,1.6956,1.6948,1.6908,1.6916,1.6912,1.6891,1.6879,1.6895,1.6897,1.6888,1.6881,1.6857,1.6856,1.6856,1.6855,0,1.7359,1.7306,1.7313,1.7255,1.7241,1.7255,1.7206,1.7209,1.7171,1.717,1.7166,1.7107,1.7094,1.7041,1.7017,1.699,1.701,1.699,1.7021,1.7014,1.7048,1.7045,1.7171,1.7183,1.705,1.7052,1.7053,0,1.7425,1.7436,1.7379,1.7372,1.735,1.7342,1.733,1.7269,1.726,1.722,1.7227,1.7209,1.7191,1.7174,1.7129,1.7109,1.7086,1.7132,1.7083,1.7097,1.7084,1.7083,1.7083,1.7142,1.7144,1.7146,1.7147,0,1.7547,1.752,1.7505,1.748,1.7467,1.7445,1.742,1.7419,1.735,1.7342,1.7328,1.7314,1.7287,1.7269,1.7241,1.7215,1.7169,1.7162,1.7168,1.7184,1.72,1.7189,1.7048,1.716,1.7158,1.7157,1.7157,1.7156,1.7643,1.7648,1.7608,1.7592,1.7566,1.7543,1.7542,1.7503,1.7489,1.7461,1.7426,1.7415,1.7378,1.7335,1.7313,1.7303,1.7278,1.7287,1.7289,1.7292,1.7298,1.7203,1.7298,1.7298,1.7297,1.7297,1.7297,0,1.776,1.773,1.7716,1.7681,1.7668,1.7625,1.7593,1.7586,1.7576,1.7545,1.7528,1.751,1.7491,1.7444,1.742,1.7422,1.74,1.7417,1.7416,1.741,1.7324,1.732,1.7435,1.7435,1.7435,1.7435,1.7435,1.7435,1.7819,1.7824,1.7792,1.7783,1.7752,1.774,1.7725,1.7703,1.7677,1.7659,1.7643,1.7611,1.7573,1.7546,1.7526,1.7513,1.7506,1.753,1.751,1.743,1.7417,1.7404,1.74,1.753,1.753,1.7596,1.7597,1.7597]},{"header":{"parameterUnit":"m.s-1","parameterCategory":1,"la1":30.2991,"la2":30.254,"lo1":-89.0895,"lo2":-89.0444,"dy":0.0017,"dx":0.0017,"nx":28,"ny":28,"refTime":"2023-07-19T09:00:00:Z","depth":0,"parameterNumber":3,"parameterNumberName":"V-component_of_WINDS"},"data":[0,0,0,0,0,0,0,0,0,0,0,0,0,0,0,0,0,0,0,0,0,0,0,0,0,0,0,0,0,0,0,0,0,0,0,0,0,0,0,0,0,0,0,0,0,0,0,0,0,0,0,0,0,0,0,0,0,0,4.6878,4.6879,0,4.6987,4.6988,4.6989,4.6973,4.6972,4.697,4.6968,4.7071,4.7075,4.708,0,0,0,0,0,0,0,0,0,0,0,0,0,4.6647,4.6651,4.6878,4.6879,4.6881,4.6987,4.6988,4.699,4.6974,4.6972,4.6969,4.6967,4.707,4.7075,4.708,0,0,0,0,0,0,0,0,0,0,0,0,0,4.675,4.6652,4.6878,4.6886,4.6887,4.6987,4.6988,4.699,4.6974,4.6972,4.6969,4.6966,4.7068,4.7074,4.7081,4.7176,0,0,4.7101,4.7104,0,0,0,0,0,0,0,0,4.6744,4.6759,4.6883,4.6885,4.6887,4.6964,4.6944,4.7052,4.6975,4.6941,4.6968,4.6965,4.7037,4.7046,4.7072,4.7181,4.7185,4.7102,4.7106,4.7109,4.711,0,0,0,0,0,0,0,4.6737,4.6754,4.6921,4.6885,4.6888,4.6881,4.6893,4.6965,4.7002,4.6944,4.6943,4.6957,4.7038,4.7066,4.7074,4.7187,4.7101,4.7107,4.7111,4.7114,4.7378,4.7381,0,0,0,0,0,0,4.6729,4.6748,4.6917,4.6924,4.6808,4.6887,4.69,4.6942,4.7002,4.7009,4.6959,4.6955,4.7056,4.7067,4.7078,4.7193,4.7108,4.7115,4.7118,4.7375,4.7379,4.7382,0,0,0,0,0,0,4.6724,4.6744,4.6913,4.6836,4.6857,4.6894,4.6941,4.6946,4.6974,4.7013,4.7019,4.6981,4.7054,4.7069,4.7152,4.7196,4.7118,4.7124,4.7372,4.7376,4.738,4.7424,0,0,0,0,0,0,4.6718,4.6743,4.6781,4.6837,4.6861,4.6988,4.6944,4.695,4.6987,4.6983,4.7036,4.7042,4.7053,4.7142,4.7159,4.7204,4.7129,4.7368,4.7374,4.7379,4.7419,4.743,4.7439,0,0,0,0,0,4.671,4.6788,4.6784,4.6804,4.6911,4.6991,4.7004,4.7018,4.699,4.7028,4.7053,4.704,4.7189,4.7151,4.7169,4.7217,4.7365,4.7372,4.7379,4.7415,4.7428,4.7439,0,0,0,0,0,0,4.6733,4.6795,4.6791,4.689,4.6936,4.6988,4.7036,4.7031,4.7083,4.7078,4.709,4.7102,4.7187,4.721,4.7167,4.7312,4.7273,4.7284,4.7294,4.7307,4.7317,4.7309,4.7134,0,0,0,0,0,4.675,4.6813,4.6863,4.6945,4.6968,4.6999,4.7034,4.7041,4.7087,4.7105,4.7137,4.718,4.7236,4.7273,4.7327,4.7423,4.7433,4.7464,4.7474,4.7482,4.7491,4.7543,4.7557,4.7404,4.7404,4.7404,0,0,4.6785,4.6827,4.6865,4.6951,4.6987,4.7049,4.7015,4.7081,4.7127,4.7114,4.7196,4.7221,4.7269,4.7359,4.74,4.7382,4.7536,4.7491,4.7497,4.7502,4.7551,4.7566,4.7579,4.7409,4.7408,4.7408,0,0,4.6881,4.692,4.6993,4.703,4.7086,4.7106,4.7124,4.7177,4.7194,4.7277,4.7269,4.7321,4.7418,4.7453,4.7484,4.7594,4.7583,4.761,4.7662,4.7712,4.7724,4.7735,4.7773,4.7787,4.7619,4.7619,4.7619,0,4.6916,4.7013,4.7029,4.7099,4.7135,4.713,4.7203,4.7237,4.7307,4.7331,4.731,4.7432,4.7464,4.7563,4.759,4.7615,4.7633,4.7604,4.7722,4.7733,4.7743,4.7779,4.7794,4.7622,4.7622,4.7622,4.7621,0,4.7053,4.712,4.7171,4.7243,4.7285,4.7355,4.738,4.7421,4.7424,4.7445,4.7529,4.7568,4.763,4.7653,4.7656,4.7752,4.7738,4.772,4.768,4.776,4.7795,4.7809,4.7627,4.7625,4.7625,4.7624,0,0,4.7165,4.7247,4.7265,4.7298,4.736,4.741,4.7479,4.7542,4.7577,4.7624,4.7681,4.7764,4.7747,4.7782,4.7788,4.7832,4.7916,4.7808,4.7809,4.7826,4.8023,4.8036,4.8052,4.791,4.7913,4.7915,4.8018,0,4.7267,4.7393,4.741,4.752,4.758,4.7577,4.7636,4.7679,4.7701,4.7753,4.7775,4.7834,4.7808,4.7829,4.7872,4.7897,4.7955,4.7889,4.796,4.7963,4.7948,4.8071,4.8085,4.8181,4.8032,4.8034,4.8036,0,4.7401,4.7457,4.7574,4.7628,4.7654,4.7708,4.7768,4.7819,4.7867,4.7879,4.7919,4.7919,4.7988,4.7946,4.804,4.7994,4.8024,4.804,4.8044,4.8051,4.8004,4.8079,4.8212,4.8226,4.8058,4.8056,4.8054,0,4.7471,4.7575,4.7658,4.7686,4.7751,4.7789,4.7817,4.7863,4.79,4.7951,4.7975,4.8032,4.8063,4.8106,4.8121,4.809,4.8214,4.8173,4.8224,4.8223,4.8249,4.8247,4.8388,4.827,4.827,4.8269,4.8269,0,4.7582,4.7653,4.769,4.7742,4.7821,4.7839,4.7916,4.7942,4.7983,4.8037,4.8036,4.8086,4.8104,4.8156,4.8168,4.8243,4.8257,4.8267,4.8269,4.8267,4.8266,4.8286,4.828,4.8273,4.8272,4.8271,4.8271,0,4.7672,4.7701,4.7791,4.7847,4.7862,4.7918,4.7964,4.8012,4.8033,4.8102,4.8119,4.8151,4.8213,4.8233,4.8307,4.8315,4.8402,4.8398,4.8387,4.8387,4.8436,4.8431,4.8594,4.8616,4.8484,4.8485,4.8486,0,4.7741,4.7796,4.7859,4.7897,4.7928,4.7988,4.8027,4.8046,4.8086,4.8145,4.8186,4.8248,4.8298,4.8397,4.8425,4.8481,4.8478,4.8531,4.8486,4.8482,4.8478,4.8474,4.8479,4.8539,4.8541,4.8542,4.8543,0,4.7859,4.7871,4.7929,4.7992,4.8039,4.8089,4.8136,4.8166,4.8192,4.8237,4.8302,4.8341,4.8418,4.8479,4.8536,4.8562,4.8556,4.8557,4.8572,4.8569,4.856,4.8565,4.8409,4.8553,4.8552,4.8551,4.8551,4.855,4.794,4.799,4.8042,4.8106,4.8145,4.819,4.8238,4.8267,4.8322,4.8388,4.8396,4.8465,4.851,4.8588,4.8616,4.8669,4.8653,4.8675,4.868,4.8685,4.8688,4.8553,4.8679,4.8679,4.8679,4.8679,4.8678,0,4.8058,4.8092,4.8151,4.822,4.827,4.8264,4.8316,4.8358,4.842,4.8465,4.8516,4.8589,4.8649,4.8682,4.8741,4.8776,4.8775,4.8791,4.8788,4.8794,4.8699,4.8681,4.8791,4.8791,4.8791,4.8791,4.8791,4.8791,4.8125,4.8208,4.8226,4.8327,4.836,4.8431,4.8461,4.8502,4.8537,4.8621,4.8672,4.8695,4.8734,4.8796,4.8849,4.8857,4.8878,4.8896,4.8902,4.8812,4.8801,4.8789,4.8772,4.89,4.89,4.8992,4.8993,4.8994]}]]